Flag for Canada Weather past 2 weeks in Eureka, Nunavut Territory, Canada

Now
27 °F

Light snow. Partly sunny.


Feels Like: 27 °F
Forecast: 15 / 22 °F
Wind: No wind

Location: Eureka

Current Time: Sep 17, 2014 at 7:30:25 PM

Latest Report: Sep 17, 2014 at 7:00 PM


Visibility: 10 mi

Pressure: 30.01 "Hg

Humidity: 86%

Dew point: 23 °F

Location of EurekaLocation

Historic Weather in Eureka — Graph

°F

Eureka temperature yesterday

Maximum temperature yesterday: 27 °F (at 3:00 PM)
Minimum temperature yesterday: 23 °F (at 12:00 AM)
Average temperature yesterday: 25 °F

Past Weeks' High & Low Weather Summary

 TemperatureHumidityPressure
High37 °F (Sep 4, 5:00 PM)93% (Sep 6, 3:00 AM)30.01 "Hg (Sep 6, 3:00 AM)
Low18 °F (Sep 14, 6:00 AM)63% (Sep 13, 4:00 PM)29.34 "Hg (Sep 9, 4:00 PM)
Average29 °F78%29.73 "Hg
* Reported Sep 2 6:00 PM — Sep 17 6:00 PM, Eureka, Weather by CustomWeather, © 2014

Note: Actual official high and low records may vary slightly from our data, if they occured in-between our weather recording intervals... More about our weather records

Advertising

Eureka weather history for previous 24 hours

 ConditionsComfort  
Time TempWeatherWind HumidityBarometerVisibility
6:00 PM
Sep 17
27 °FLight snow. Overcast.No wind86%30.01 "Hg10 mi
5:48 PMN/ALight snow.No windN/AN/A10 mi
5:00 PM27 °FPartly sunny.No wind86%30.00 "Hg15 mi
4:00 PM27 °FOvercast.2 mph80%30.00 "Hg15 mi
3:00 PM25 °FOvercast.No wind86%30.00 "Hg15 mi
2:00 PM25 °FOvercast.2 mph86%30.00 "Hg15 mi
1:00 PM25 °FMostly cloudy.No wind86%30.00 "Hg15 mi
12:00 PM25 °FPartly sunny.No wind86%30.00 "Hg15 mi
11:00 AM25 °FPartly sunny.No wind86%30.00 "Hg15 mi
10:00 AM25 °FPartly sunny.No wind86%30.00 "Hg15 mi
9:51 AMN/AOvercast.2 mphN/AN/A15 mi
9:00 AM25 °FLight snow. Partly sunny.6 mph86%30.00 "Hg15 mi
8:00 AM27 °FLight snow. Partly sunny.7 mph86%30.00 "Hg15 mi
7:00 AM27 °FLight snow. Partly sunny.5 mph86%30.00 "Hg6 mi
6:00 AM27 °FLight snow. Overcast.8 mph86%30.00 "Hg6 mi
5:00 AM27 °FLight snow. Overcast.7 mph86%30.01 "Hg10 mi
4:00 AM27 °FOvercast.8 mph86%30.01 "Hg10 mi
3:00 AM27 °FOvercast.8 mph80%30.01 "Hg10 mi
2:00 AM27 °FOvercast.9 mph80%30.01 "Hg10 mi
1:00 AM27 °FLight snow. Overcast.9 mph80%30.01 "Hg10 mi
12:00 AM27 °FLight snow. Overcast.9 mph80%30.00 "Hg10 mi
11:00 PM
Sep 16
27 °FLight snow. Overcast.10 mph80%30.00 "Hg10 mi
10:00 PM25 °FLight snow. Overcast.10 mph93%30.00 "Hg10 mi
9:00 PM27 °FLight snow. Overcast.10 mph80%30.01 "Hg12 mi
8:00 PM25 °FLight snow. Overcast.12 mph80%30.01 "Hg8 mi
7:00 PM27 °FLight snow. Overcast.10 mph74%30.01 "Hg5 mi
Weather by CustomWeather, © 2014

See weather overviewHow to use our weather pages